www.pogodaiklimat.ru
Время
и дата
23:56 27.11
00:13 28.11
00:40 28.11
00:56 28.11
01:56 28.11
02:56 28.11
03:42 28.11
03:56 28.11
04:12 28.11
04:56 28.11
05:39 28.11
05:56 28.11
06:33 28.11
06:56 28.11
07:56 28.11
08:56 28.11
09:56 28.11
10:56 28.11
11:56 28.11
12:56 28.11
13:56 28.11
14:56 28.11
15:56 28.11
16:56 28.11
17:56 28.11
18:56 28.11
19:56 28.11
20:56 28.11
23:56 28.11
00:44 29.11
00:56 29.11
01:16 29.11
01:40 29.11
01:56 29.11
02:09 29.11
02:56 29.11
03:56 29.11
04:56 29.11
05:56 29.11
06:56 29.11
07:56 29.11
08:56 29.11
09:28 29.11
09:56 29.11
10:35 29.11
10:56 29.11
11:06 29.11
11:56 29.11
Ветер
(напр.,м/с)
Видим. Явления Облачность Т
(С)
Тd
(С)
f
(%)
Тe
(С)
Тes
(С)
Комфортность P
(гПа)
Po
(гПа)
Тmin
(С)
Tmax
(С)
R
(мм)
R24
(мм)
S
(см)
Ю 1 16 км 2/2 720 м +15.6 +13.3 86 +15 +15 1021.1 1013.5
Ю 1 16 км 8/8 720 м +15.6 +13.3 86 +15 +15 1013.5
Ю 1 16 км 5/5 720 м +15.6 +13.3 86 +15 +15 1013.5
Ю 1 16 км 2/2 690 м +15.6 +13.3 86 +15 +15 1021.2 1013.5
ЮВ 1 16 км ясно +14.4 +12.8 90 +13 +13 1021.1 1013.5
Ю 1 16 км ясно +13.3 +12.2 93 +12 +12 1021.1 1013.5
ЮЗ 1 16 км 8/8 690 м +13.3 +12.2 93 +12 +12 1013.5
ЮЗ 1 16 км 8/8 690 м +13.3 +12.2 93 +13 +13 1021.2 1013.5 +13.3 +16.1 1.5
Ю 1 16 км 5/5 690 м +12.8 +11.7 93 +12 +12 1013.5
Ю 1 16 км ясно +12.2 +11.7 97 +10 +10 1020.9 1013.2
Ю 1 16 км 8/8 660 м +13.3 +11.7 90 +12 +12 1013.5
Ю 1 16 км 10/10 660 м +13.3 +12.2 93 +12 +12 1021.3 1013.5
Ю 1 16 км 5/5 660 м +12.2 +11.1 93 +11 +11 1013.8
Ю 1 16 км 5/5 690 м +12.2 +11.1 93 +11 +11 1021.7 1013.8
Ю 1 16 км ясно +11.7 +11.1 96 +10 +10 1022.3 1014.5
Ю 1 16 км ясно +12.2 +11.1 93 +11 +11 1022.8 1015.2
Ю 1 16 км 5/5 240 м +14.4 +12.2 87 +13 +14 1023.4 1015.5 +11.1 +14.4
Ю 2 16 км 5/5 840 м +15.0 +11.7 81 +14 +14 1023.6 1015.8
ЮЗ 2 16 км 8/8 630 м +16.1 +11.7 75 +15 +16 1023.6 1015.8
Ю 3 16 км 5/5 990 м +16.7 +10.6 67 +16 +16 1022.6 1014.8
Ю 2 16 км ясно +16.7 +10.6 67 +16 +18 1022.3 1014.5
Ю 2 16 км 2/2 720 м +16.1 +11.1 72 +15 +16 1022.3 1014.5
Ю 3 16 км ясно +15.6 +10.6 72 +14 +14 1022.2 1014.5 +13.9 +16.7
Ю 2 16 км 5/0 2700 м
[Ac]
+14.4 +11.1 81 +13 +13 1022.6 1014.8
Ю 2 16 км 8/5 1650 м
[Ac]
+14.4 +10.6 78 +13 +13 1022.9 1015.2
Ю 2 16 км 10/0 2100 м
[Ac]
+14.4 +10.0 75 +13 +13 1022.9 1015.2
Ю 2 16 км 10/0 2250 м
[Ac]
+13.9 +10.0 77 +12 +12 1023.5 1015.5
Ю 2 16 км 10/2 1110 м
[Ac]
+13.3 +10.0 80 +12 +12 1023.4 1015.5
Ю 3 16 км 10/10 900 м +13.3 +10.0 80 +11 +11 1023.5 1015.8
Ю 3 13 км 10/10 870 м +12.8 +11.1 89 +10 +10 1015.8
Ю 3 16 км 10/10 810 м +12.8 +11.1 89 +10 +10 1023.5 1015.8
Ю 2 16 км 10/10 270 м +12.8 +11.1 89 +11 +11 1015.8
Ю 3 14 км 10/10 300 м +12.2 +10.6 90 +9 +9 1015.5
Ю 2 16 км 10/10 300 м +12.2 +10.6 90 +10 +10 1023.4 1015.5
Ю 2 16 км 10/10 300 м +12.2 +10.6 90 +10 +10 1015.8
Ю 1 16 км слабый дождь 10/10 810 м +11.7 +10.0 89 +10 +10 1023.8 1015.8
Ю 2 16 км 10/10 720 м +11.7 +10.0 89 +9 +9 1023.3 1015.5 +11.7 +13.3 0.5 0.5
Ю 2 16 км слабый дождь 10/10 720 м +11.7 +10.0 89 +9 +9 1023.6 1015.8
Ю 2 11 км 10/10 630 м +11.7 +10.0 89 +9 +9 1024.1 1016.2
Ю 1 16 км 10/10 480 м +11.7 +10.0 89 +10 +10 1025.1 1017.2 0.3
ЮВ 3 16 км слабый дождь 10/2 1650 м
[Ac]
+11.7 +10.0 89 +9 +9 1023.6 1015.8
Ю 2 16 км ясно +12.2 +10.6 90 +10 +10 1024.5 1016.8
Ю 1 16 км 8/8 540 м +12.8 +11.1 89 +11 +11 1016.8
Ю 2 16 км 10/10 600 м +13.9 +11.7 87 +12 +12 1025.0 1017.2 +11.7 +13.9 1.0
Ю 2 16 км 2/2 660 м +13.9 +11.7 87 +12 +13 1017.5
Ю 2 16 км 5/5 690 м +14.4 +11.7 84 +13 +14 1025.5 1017.5
Ю 1 16 км 8/8 690 м +15.0 +11.1 77 +15 +15 1017.9
Ю 1 16 км 10/10 660 м +15.6 +11.1 75 +15 +15 1025.4 1017.5
Местоположение метеостанции McNary Field: широта 44.9078 долгота -122.9950 высота над уровнем моря 64 м.
В архиве по умолчанию представлена погода в Салеме за последние 1-2 суток. Обновление информации о фактической погоде в базе происходит ежечасно! Архивные данные за месяц целиком и за предыдущие месяцы Вы можете получить, выбрав интересующий диапазон дат из раскрывающегося списка и нажав кнопку "Ввод!".
Внимание! Архив погоды МЕТАР в базе сайта по станциям, не включенным в климатический монитор, хранится не более 60 дней. Нет смысла пытаться выбрать более раннюю дату.
*Определитесь, кто Вы:
Внимание! Время в таблицах - местное (без учета летнего времени). Для получения всемирного времени необходимо вычесть поправку, которая равна -8 ч.
Смотрите также архив погоды в соседних городах и на ближайших метеорологических станциях:
Партнеры нашего сайта:      
Пояснения к столбцам:
  • Ветер - указаны скорость ветра в м/с - средняя за 10 мин, порывы в срок и между сроками (в фигурных скобках) и направление, откуда дует ветер: С - северный,
  • СВ - северо-восточный, В - восточный, ЮВ - юго-восточный, Ю - южный, ЮЗ - юго-западный, З - западный, СЗ - северо-западный.
  • Видимость - горизонтальная дальность видимости в метрах или километрах. При видимости от 1 до 10 км при отсутствии осадков обычно наблюдается дымка, при ухудшении видимости до 1 км и менее - туман. В сухую погоду видимость может ухудшаться дымом, пылью или мглою.
  • Явления - указаны атмосферные явления, наблюдавшиеся в срок или в последний час перед сроком; фигурными скобками обозначены явления, наблюдавшиеся между сроками (за 1-3 часа до срока); квадратными скобками обозначены град или гололедные отложения с указанием их диаметра в мм.
  • Облачность - указаны через наклонную черту общая и нижняя облачность в баллах и высота нижней границы облаков в метрах; квадратными скобками обозначены формы облаков: Ci - перистые, Cs - перисто-слоистые, Cc - перисто-кучевые, Ac - высококучевые, As - высокослоистые, Sc - слоисто-кучевые, Ns - слоисто-дождевые, Cu - кучевые, Cb - кучево-дождевые. Подробнее классификацию облаков см. в Атласе облаков (PDF).
  • T - Температура воздуха - температура, измеренная на высоте 2 м над землей.
  • Td - Температура точки росы - температура, при понижении до которой содержащийся в воздухе водяной пар достигнет насыщения.
  • f - Относительная влажность воздуха - влажноcть воздуха, измеренная на высоте 2 м над землей.
  • Te - Эффективная температура - температура, которую ощущает одетый по сезону человек в тени. Характеристика душности погоды. При расчете учитывается влияние влажности воздуха и скорости ветра на теплоощущения человека.
  • Tes - Эффективная температура на солнце - температура, которую ощущает человек, с поправкой на солнечный нагрев. Характеристика знойности погоды. Зависит от высоты солнца над горизонтом, облачности и скорости ветра. Ночью, в пасмурную погоду, а также при ветре 12 м/с и более поправка равна нулю.
  • P - Атмосферное давление - приведенное к уровню моря атмосферное давление.
  • Po - Атмосферное давление - измеренное на уровне метеостанции атмосферное давление.
  • Tmin - Минимальная температура - минимум температуры воздуха на высоте 2 м над землей.
  • Tmax - Максимальная температура - максимум температуры воздуха на высоте 2 м над землей.
  • R - Количество осадков - Количество выпавших осадков за период времени, мм. При наведении курсора мыши на число - период времени, за который выпало указанное количество осадков.
  • R24 - Количество осадков - Количество выпавших осадков за 24 часа, мм.
  • S - Снежный покров - Высота снежного покрова, см. При наведении курсора мыши на число - состояние снежного покрова и степень покрытия местности в баллах.